Location: Amsterdam
(30.7274°N, 84.4357°W)
Time: 19:48:29
(UTC+00:00)

Altair - Pass Details

Date: 06 August 2024
Orbit: 1501 x 1682 km, 47.2° (Epoch: 07 September)

Event Time Altitude Azimuth Distance (km) Brightness Sun altitude
Rises 22:17:45 0° 298° (WNW) 4,780 11.1 26.5°
Reaches altitude 10° 22:21:31 10° 309° (NW) 3,766 10.6 25.7°
Maximum altitude 22:29:28 29° 7° (N) 2,523 8.8 23.9°
Drops below altitude 10° 22:37:15 10° 64° (ENE) 3,668 9.1 22.3°
Sets 22:40:51 0° 76° (ENE) 4,638 9.5 21.5°
